Skagway, AK

3:32 PM AKDT on July 25, 2017 (GMT -0800)
Skagway

Weather History for PAGY - January, 2014

Change the Weather History Date:

Friday, January 10, 2014

  Actual Average Record
Temperature  
Mean Temperature 36 °F -  
Max Temperature 39 °F 27 °F 45 °F (1997)
Min Temperature 33 °F 20 °F -14 °F (1971)
Degree Days  
Heating Degree Days 29    
Moisture  
Dew Point 31 °F    
Average Humidity 78    
Maximum Humidity 83    
Minimum Humidity 73    
Precipitation  
Precipitation 0.00 in - - ()
Sea Level Pressure  
Sea Level Pressure 29.35 in    
Wind  
Wind Speed 18 mph (SSW)    
Max Wind Speed 26 mph    
Max Gust Speed 38 mph    
Visibility 10 miles    
Events      
Averages and records for this station are not official NWS values.
T = Trace of Precipitation, MM = Missing Value Source: NWS Daily Summary

Daily Weather History Graph

Daily Weather History Graph

Search for Another Location

Airport or City:

Trip Planner

Search our weather history database for the weather conditions in past years. The results will help you decide how hot, cold, wet, or windy it might be!

Date:

Astronomy

Jan. 10, 2014 Rise Set
Actual Time 8:51 AM AKST 3:27 PM AKST
Civil Twilight 7:58 AM AKST 4:20 PM AKST
Nautical Twilight 7:04 AM AKST 5:13 PM AKST
Astronomical Twilight 6:14 AM AKST 6:03 PM AKST
Moon 11:58 AM AKST (1/10) 3:40 AM AKST (1/10)
Length of Visible Light 8h 21m
Length of Day
6h 36m
Waxing Gibbous, 76% of the Moon is Illuminated
Jan 10
Waxing Gibbous
Jan 15
Full
Jan 23
Last Quarter
Jan 30
New
Feb 6
First Quarter

Hourly Weather History & Observations

Time (AKST) Temp. Windchill Dew Point Humidity Pressure Visibility Wind Dir Wind Speed Gust Speed Precip Events Conditions
12:53 AM 37.9 °F 28.2 °F 33.1 °F 83% 29.39 in 10.0 mi SSW 18.4 mph - N/A   Overcast
1:53 AM 37.9 °F 27.9 °F 32.0 °F 79% 29.40 in 10.0 mi SSW 19.6 mph 25.3 mph N/A   Overcast
3:53 AM 37.9 °F 28.5 °F 32.0 °F 79% 29.42 in 10.0 mi SSW 17.3 mph 31.1 mph N/A   Overcast
4:53 AM 37.9 °F 27.9 °F 32.0 °F 79% 29.44 in 10.0 mi SSW 19.6 mph 26.5 mph N/A   Overcast
5:53 AM 37.9 °F 26.8 °F 32.0 °F 79% 29.42 in 10.0 mi SSW 24.2 mph - N/A   Overcast
6:53 AM 37.9 °F 27.3 °F 32.0 °F 79% 29.42 in 10.0 mi SSW 21.9 mph 28.8 mph N/A   Overcast
7:53 AM 37.9 °F 27.3 °F 32.0 °F 79% 29.41 in 10.0 mi SSW 21.9 mph 27.6 mph N/A   Mostly Cloudy
8:53 AM 37.9 °F 27.1 °F 32.0 °F 79% 29.42 in 10.0 mi SSW 23.0 mph 31.1 mph N/A   Overcast
9:53 AM 37.9 °F 26.3 °F 32.0 °F 79% 29.43 in 10.0 mi SSW 26.5 mph 35.7 mph N/A   Overcast
10:53 AM 39.0 °F 27.8 °F 32.0 °F 76% 29.43 in 10.0 mi SSW 26.5 mph 38.0 mph N/A   Overcast
11:53 AM 39.0 °F 29.0 °F 32.0 °F 76% 29.43 in 10.0 mi SSW 20.7 mph 29.9 mph N/A   Overcast
12:53 PM 39.0 °F 29.6 °F 32.0 °F 76% 29.42 in 10.0 mi SSW 18.4 mph 31.1 mph N/A   Overcast
1:53 PM 39.0 °F 29.3 °F 30.9 °F 73% 29.40 in 10.0 mi SSW 19.6 mph 27.6 mph N/A   Overcast
2:53 PM 37.9 °F 27.6 °F 30.9 °F 76% 29.39 in 10.0 mi SSW 20.7 mph 28.8 mph N/A   Overcast
3:53 PM 37.9 °F 26.8 °F 30.9 °F 76% 29.35 in 10.0 mi SSW 24.2 mph 32.2 mph N/A   Overcast
4:53 PM 37.9 °F 26.8 °F 30.9 °F 76% 29.34 in 10.0 mi SSW 24.2 mph 29.9 mph N/A   Overcast
5:53 PM 37.9 °F 27.3 °F 30.9 °F 76% 29.33 in 10.0 mi SSW 21.9 mph 29.9 mph N/A   Overcast
6:53 PM 37.0 °F 25.9 °F 30.9 °F 79% 29.31 in 10.0 mi SSW 23.0 mph 28.8 mph N/A   Overcast
7:53 PM 37.0 °F 28.5 °F 30.9 °F 79% 29.29 in 10.0 mi SSW 13.8 mph 23.0 mph N/A   Overcast
8:53 PM 37.0 °F 31.6 °F 30.0 °F 76% 29.27 in 10.0 mi South 6.9 mph 18.4 mph N/A   Overcast
9:53 PM 36.0 °F 31.1 °F 30.0 °F 79% 29.26 in 10.0 mi SSW 5.8 mph - N/A   Overcast
10:31 PM 35.6 °F - 28.4 °F 75% 29.24 in 10.0 mi Calm Calm - N/A   Overcast
10:53 PM 34.0 °F 28.0 °F 28.9 °F 82% 29.23 in 10.0 mi NNE 6.9 mph - N/A   Overcast
11:02 PM 33.8 °F 27.7 °F 28.4 °F 81% 29.21 in 10.0 mi NE 6.9 mph - N/A   Overcast
11:18 PM 33.8 °F 29.6 °F 28.4 °F 81% 29.22 in 10.0 mi East 4.6 mph - N/A   Overcast
11:53 PM 34.0 °F 27.2 °F 28.9 °F 82% 29.20 in 10.0 mi NE 8.1 mph - N/A   Overcast